Simultaneous Nadir Overpasses (SNOs) Predictions

Prediction of SNOs between GOES-16 and NOAA-19 Satellite Orbit:

Table of predicted SNOs for the next 14.0 days since TLE Epoch: 5/30/2025
Index Date Time (GOES-16) GOES-16 Lat,Lon NOAA-19 Lat,Lon Distance(km) Time Diff (sec)
1 06/02/2025 04:42:39 -0.04,-102.47 -0.24,-103.35 99.73 80
2 06/03/2025 04:27:23 -0.04,-103.00 0.61,-100.31 307.29 80
3 06/04/2025 17:01:14 0.03,-103.84 0.97,-107.83 455.43 80
4 06/05/2025 16:48:38 0.03,-104.37 0.13,-104.79 48.31 80
5 06/06/2025 16:33:23 0.03,-104.90 -0.70,-101.75 358.71 80
6 06/08/2025 05:07:25 -0.03,-105.68 -0.84,-109.32 415.79 80
7 06/09/2025 04:54:48 -0.02,-106.20 -0.04,-106.28 8.72 80
8 06/10/2025 04:39:32 -0.02,-106.73 0.76,-103.23 398.15 80
9 06/11/2025 17:13:25 0.01,-107.56 0.73,-110.77 365.86 80
10 06/12/2025 16:58:09 0.01,-108.09 -0.06,-107.73 40.70 80
11 06/13/2025 16:45:33 0.00,-108.61 -0.91,-104.69 447.28 80
